Date,TemperatureHighF,TemperatureAvgF,TemperatureLowF,DewpointHighF,DewpointAvgF,DewpointLowF,HumidityHigh,HumidityAvg,HumidityLow,PressureMaxIn,PressureMinIn,WindSpeedMaxMPH,WindSpeedAvgMPH,GustSpeedMaxMPH,PrecipitationSumIn
2014-1-1,10.1,4.5,-1.2,-0.8,-4.5,-8.4,75,66,56,30.47,30.38,9,2,9,0.00
2014-1-2,12.0,4.1,-15.3,2.3,-3.8,-20.4,81,70,54,30.50,30.35,10,2,13,0.00
2014-1-3,19.5,2.6,-18.4,13.5,-3.2,-23.1,87,76,69,30.48,29.75,16,4,17,0.00
2014-1-4,32.4,24.0,13.0,29.1,17.2,4.8,89,75,67,30.16,29.66,17,5,17,0.00
2014-1-5,13.0,1.9,-10.0,4.7,-7.4,-17.4,71,64,55,30.27,30.15,16,4,16,0.00
2014-1-6,-10.1,-13.8,-19.8,-16.7,-21.7,-27.2,83,67,59,30.30,30.21,18,4,18,0.00
2014-1-7,4.1,-6.8,-16.0,-7.2,-14.1,-21.9,77,70,57,30.36,30.25,7,2,10,0.00
2014-1-8,9.5,-6.2,-15.6,-1.4,-12.5,-20.2,84,74,60,30.59,30.34,7,1,7,0.00
2014-1-9,20.2,1.5,-20.6,17.7,-4.4,-25.3,90,77,56,30.59,30.14,8,1,8,0.00
2014-1-10,34.2,28.5,20.3,33.4,27.1,17.5,97,95,90,30.14,29.46,8,1,8,0.01
2014-1-11,33.3,30.8,27.2,32.5,28.4,24.5,97,91,86,29.75,29.43,10,3,13,0.03
2014-1-12,41.5,34.2,25.8,33.0,28.9,23.9,93,81,65,29.75,29.48,17,4,17,0.11
2014-1-13,40.1,33.5,24.9,33.4,28.1,20.3,89,81,62,29.70,29.50,14,2,14,0.03
2014-1-14,33.1,25.9,14.6,31.6,23.1,11.7,94,89,81,29.98,29.46,14,3,14,0.00
2014-1-15,18.7,12.6,8.0,14.1,7.2,3.9,88,79,67,30.12,29.65,14,4,14,0.00
2014-1-16,35.2,22.9,10.6,31.7,17.1,2.7,92,78,66,29.76,29.41,17,4,17,0.04
2014-1-17,20.2,13.4,2.4,13.8,7.5,-2.9,95,77,69,30.01,29.75,12,3,12,0.00
2014-1-18,19.3,8.3,-2.2,16.1,5.0,-6.0,92,86,79,29.96,29.78,11,1,11,0.00
2014-1-19,36.7,26.4,10.9,29.4,20.9,8.4,91,80,67,29.86,29.48,17,4,17,0.06
2014-1-20,32.6,21.1,4.1,26.7,16.1,-4.7,92,81,66,30.30,29.66,20,3,20,0.00
2014-1-21,7.8,0.0,-7.6,-4.5,-8.1,-13.2,80,68,52,30.43,30.17,14,2,20,0.00
2014-1-22,11.8,4.1,-3.2,5.1,-3.4,-11.4,81,71,61,30.33,29.96,13,3,18,0.00
2014-1-23,6.3,-2.3,-8.9,-4.8,-10.4,-15.8,83,68,57,30.67,30.33,16,3,16,0.00
2014-1-24,32.1,14.5,-9.3,29.3,7.8,-14.5,92,75,64,30.50,29.43,21,6,21,0.00
2014-1-25,32.1,13.0,3.7,27.5,-0.3,-7.7,83,55,33,29.87,29.44,26,5,26,0.00
2014-1-26,23.3,10.5,1.5,16.0,4.9,-5.6,89,78,60,29.93,29.40,22,4,22,0.00
2014-1-27,1.5,-5.8,-13.3,-5.0,-14.8,-20.0,75,64,53,30.47,29.93,20,5,20,0.00
2014-1-28,5.0,-6.0,-16.3,-7.7,-13.8,-21.6,78,69,53,30.47,30.23,17,4,17,0.00
2014-1-29,26.1,10.6,-4.6,14.0,0.6,-10.4,77,64,49,30.23,29.80,20,4,20,0.00
2014-1-30,31.0,25.4,11.7,27.0,17.8,5.0,90,73,59,29.97,29.51,19,5,19,0.01
2014-1-31,11.7,4.0,-5.9,5.2,-3.6,-10.7,81,71,54,30.22,29.97,6,1,7,0.00
2014-2-1,25.0,11.0,-4.8,17.1,5.6,-8.9,85,78,66,30.18,30.00,9,1,9,0.00
2014-2-2,18.5,2.8,-10.7,3.3,-4.6,-15.6,88,72,47,30.39,30.18,8,1,8,0.00
2014-2-3,22.2,2.6,-17.9,9.7,-4.5,-22.7,86,72,57,30.42,30.33,14,2,14,0.00
2014-2-4,20.0,13.5,5.8,9.6,6.5,1.6,87,74,61,30.48,30.30,8,1,8,0.00
2014-2-5,17.9,12.0,0.1,9.9,5.5,-5.3,86,75,64,30.50,30.28,14,3,14,0.00
2014-2-6,9.2,-1.0,-8.4,-2.4,-7.7,-12.5,83,73,57,30.48,30.36,14,4,14,0.00
2014-2-7,15.6,4.5,-3.3,3.7,-3.9,-8.2,82,69,47,30.36,30.28,12,5,16,0.00
2014-2-8,16.2,3.7,-13.1,9.9,-0.8,-17.5,92,81,74,30.32,30.17,6,0,6,0.00
2014-2-9,18.5,5.2,-7.0,9.4,-1.8,-10.9,88,73,56,30.39,30.19,11,1,11,0.00
2014-2-10,13.5,-0.3,-10.5,-1.8,-8.8,-14.7,83,68,49,30.55,30.39,9,1,9,0.00
2014-2-11,17.4,-0.8,-19.6,1.1,-9.6,-24.6,81,67,47,30.58,30.34,8,2,8,0.00
2014-2-12,22.5,9.6,-5.6,13.3,3.1,-9.7,83,75,65,30.34,29.99,9,2,9,0.01
2014-2-13,30.1,18.4,-5.6,25.4,14.1,-9.7,91,83,75,30.00,29.49,15,4,15,0.00
2014-2-14,24.7,13.6,4.7,12.5,6.2,0.3,87,73,55,30.05,29.67,11,2,11,0.00
2014-2-15,21.8,6.5,-10.6,14.1,0.5,-15.1,88,77,57,30.10,29.96,8,1,12,0.00
2014-2-16,29.2,18.5,12.2,15.8,11.9,9.0,91,76,55,30.29,30.00,11,2,11,0.02
2014-2-17,25.9,22.2,17.1,23.8,19.0,11.4,93,87,78,30.24,29.72,11,3,16,0.00
2014-2-18,45.7,30.2,9.2,31.3,23.4,6.6,95,77,56,29.89,29.57,10,2,10,0.02
2014-2-19,46.5,35.9,24.2,31.2,26.1,20.4,88,68,45,29.89,29.69,9,2,9,0.01
2014-2-20,37.2,34.7,32.9,36.4,31.7,24.8,97,89,69,29.84,28.99,24,5,24,0.50
2014-2-21,34.5,21.2,16.1,31.8,15.2,11.0,90,77,66,29.78,29.09,25,10,26,0.00
2014-2-22,26.2,18.3,11.2,14.7,9.8,5.1,77,69,58,30.12,29.77,14,5,14,0.00
2014-2-23,22.4,13.6,6.8,9.6,5.0,0.9,78,69,53,30.25,30.11,15,4,15,0.00
2014-2-24,21.1,13.4,5.9,7.8,4.1,0.1,79,66,50,30.31,30.24,13,3,13,0.00
2014-2-25,13.3,7.8,0.1,7.4,-0.6,-7.2,92,69,50,30.31,30.20,14,3,14,0.00
2014-2-26,16.1,4.7,-7.3,11.4,-3.9,-13.8,85,68,48,30.31,29.65,24,6,24,0.00
2014-2-27,8.8,0.0,-11.0,-3.6,-12.2,-16.3,77,56,37,30.23,29.76,24,3,24,0.00
2014-2-28,19.6,6.3,-12.8,15.0,-0.3,-17.2,92,75,57,30.23,30.01,8,1,10,0.00
2014-3-1,16.9,9.1,1.8,14.0,2.2,-7.1,88,73,60,30.47,30.11,12,3,12,0.00
2014-3-2,7.1,-0.6,-9.1,-7.2,-13.7,-18.1,72,54,36,30.59,30.46,14,2,14,0.00
2014-3-3,14.8,2.4,-17.4,6.2,-7.7,-22.3,83,63,48,30.61,30.37,9,2,9,0.00
2014-3-4,21.9,15.8,9.8,14.2,9.3,6.1,87,76,60,30.37,30.22,9,2,9,0.07
2014-3-5,22.4,15.9,-3.8,13.9,8.8,-8.0,89,74,55,30.51,30.30,17,4,17,0.00
2014-3-6,28.9,12.5,-8.1,17.3,5.8,-12.1,86,75,58,30.49,30.02,7,2,9,0.01
2014-3-7,41.7,32.1,20.0,32.3,25.7,14.6,85,77,68,30.06,29.83,13,2,13,0.04
2014-3-8,33.2,27.4,16.0,28.9,19.2,11.4,84,72,56,30.26,30.06,7,2,13,0.00
2014-3-9,41.9,29.2,12.5,33.4,22.3,9.3,90,76,62,30.24,29.72,15,4,15,0.00
2014-3-10,57.2,44.9,33.3,39.0,35.3,30.5,92,71,48,29.72,29.58,10,2,10,0.00
2014-3-11,42.0,38.4,34.6,38.1,34.0,28.1,92,84,68,29.83,29.65,11,1,11,0.07
2014-3-12,37.1,27.0,8.1,30.3,18.0,4.0,92,71,39,30.12,29.81,13,3,16,0.08
2014-3-13,40.9,26.3,5.3,36.2,20.2,2.0,89,78,66,30.11,29.68,11,3,15,0.02
2014-3-14,47.7,41.6,34.8,36.3,33.0,24.9,84,72,59,29.85,29.49,16,6,16,0.00
2014-3-15,37.5,31.1,24.1,24.2,19.8,16.3,82,63,47,30.34,29.84,16,2,16,0.00
2014-3-16,27.4,19.6,9.7,21.4,9.3,0.0,79,64,47,30.48,30.18,24,4,24,0.00
2014-3-17,37.1,25.6,16.2,23.8,15.5,8.9,78,66,46,30.18,29.72,13,3,13,0.00
2014-3-18,47.7,36.7,26.0,34.4,29.4,22.1,93,75,56,29.80,29.68,15,2,15,0.04
2014-3-19,37.3,33.9,32.5,35.1,30.5,24.3,96,88,71,29.97,29.61,17,3,17,0.11
2014-3-20,43.7,34.1,25.7,29.1,26.1,23.1,92,74,52,30.05,29.96,9,1,9,0.00
2014-3-21,51.7,36.7,21.1,40.2,29.1,19.6,95,76,53,30.00,29.71,19,3,19,0.00
2014-3-22,37.0,28.6,17.9,29.3,18.1,7.7,84,65,43,30.43,29.93,24,4,24,0.00
2014-3-23,28.1,19.5,12.1,10.8,7.4,4.9,75,60,42,30.51,30.40,13,2,13,0.00
2014-3-24,36.4,25.3,15.0,25.8,17.0,10.3,90,72,46,30.42,30.06,17,3,17,0.00
2014-3-25,25.2,19.2,13.5,20.8,8.1,2.3,88,62,45,30.26,30.04,18,3,18,0.00
2014-3-26,38.3,24.6,7.8,24.9,14.7,5.0,89,67,49,30.29,29.83,13,3,15,0.00
2014-3-27,40.7,38.7,36.4,39.5,34.4,24.4,96,86,55,29.83,29.38,16,3,16,0.83
2014-3-28,48.1,37.7,31.6,36.5,30.2,26.6,96,76,51,30.17,29.45,20,3,20,0.02
2014-3-29,48.9,38.0,30.2,31.1,28.9,25.4,89,72,45,30.29,30.15,10,1,10,0.00
2014-3-30,60.1,44.7,30.8,39.7,32.6,22.6,84,64,44,30.23,29.92,17,3,17,0.00
2014-3-31,66.6,54.6,46.2,46.3,41.5,37.2,73,62,44,29.94,29.50,23,4,23,0.00
2014-4-1,52.6,34.0,26.2,41.5,25.8,20.6,84,72,55,30.10,29.51,23,7,23,0.00
2014-4-2,52.2,36.7,21.1,29.7,24.2,19.3,100,64,34,30.21,30.09,17,3,17,0.00
2014-4-3,40.6,36.6,34.0,32.6,27.7,21.9,89,70,52,30.12,29.66,27,7,27,0.20
2014-4-4,36.1,34.2,32.6,34.5,31.4,27.7,97,90,79,30.02,29.47,23,3,23,0.14
2014-4-5,53.1,38.3,24.6,32.9,28.4,22.7,95,71,39,30.18,30.02,13,2,13,0.01
2014-4-6,60.2,46.4,29.5,41.4,35.1,26.2,92,66,48,30.09,29.87,13,3,13,0.00
2014-4-7,61.7,46.7,34.5,45.9,39.2,31.8,91,77,51,29.89,29.64,13,1,13,0.01
2014-4-8,59.1,45.9,33.8,39.9,34.5,28.6,95,67,38,29.95,29.68,14,2,14,0.00
2014-4-9,63.4,47.0,25.4,36.2,31.2,23.7,94,59,34,29.99,29.63,17,4,17,0.00
2014-4-10,63.8,55.0,38.4,39.2,30.2,19.0,64,41,19,29.92,29.56,12,4,18,0.00
2014-4-11,67.0,50.0,30.8,41.5,33.6,27.2,89,57,29,30.01,29.89,17,3,20,0.00
2014-4-12,55.8,45.5,35.5,47.3,40.8,32.0,97,84,67,29.98,29.63,16,3,16,0.85
2014-4-13,46.4,44.5,39.3,45.8,43.7,38.0,98,97,95,29.80,29.56,16,2,16,2.05
2014-4-14,39.3,31.0,24.1,37.8,28.2,21.1,97,89,78,30.06,29.57,16,1,16,0.25
2014-4-15,35.6,25.6,12.6,23.0,18.1,10.4,93,75,47,30.20,30.05,8,0,8,0.05
2014-4-16,52.9,40.8,24.5,33.8,28.4,22.0,91,63,44,30.21,29.98,13,4,19,0.00
2014-4-17,51.7,44.7,31.2,42.0,35.6,28.4,90,71,55,30.30,29.93,16,4,16,0.00
2014-4-18,58.1,41.4,25.2,34.1,29.2,23.8,96,67,32,30.40,30.29,14,1,14,0.00
2014-4-19,68.5,51.2,33.1,43.4,34.0,25.9,77,54,36,30.37,30.11,13,3,14,0.00
2014-4-20,63.3,58.9,53.4,58.6,48.2,38.1,96,70,45,30.11,29.93,10,2,10,0.11
2014-4-21,70.8,60.4,51.4,60.2,52.3,35.0,98,77,40,29.94,29.75,16,2,16,0.04
2014-4-22,58.7,47.9,34.6,36.4,30.8,27.2,82,53,32,30.10,29.89,12,4,16,0.00
2014-4-23,56.9,42.9,27.9,40.5,30.8,23.3,90,66,32,30.17,29.99,11,2,11,0.19
2014-4-24,51.9,43.7,36.0,49.1,41.5,34.2,96,92,86,30.08,29.66,13,3,13,0.88
2014-4-25,66.6,52.9,37.2,48.7,40.6,35.1,96,67,34,29.85,29.68,19,3,19,0.00
2014-4-26,57.7,46.3,35.3,38.5,33.6,30.8,84,62,40,30.06,29.84,22,4,22,0.00
2014-4-27,49.6,42.5,39.5,40.3,36.9,31.6,92,81,58,30.05,29.75,29,7,29,0.72
2014-4-28,46.0,43.4,40.6,42.6,40.5,37.7,97,89,79,29.81,29.60,27,8,27,1.15
2014-4-29,45.0,42.2,39.5,43.9,40.8,38.1,97,95,91,29.61,29.50,22,4,27,0.48
2014-4-30,48.8,44.3,41.4,44.9,42.3,39.0,98,93,78,29.70,29.59,7,2,10,0.11
2014-5-1,50.8,44.7,40.1,46.4,41.8,38.3,96,90,79,29.79,29.60,13,3,13,0.02
2014-5-2,54.9,47.9,41.4,45.6,42.6,38.5,94,82,65,29.79,29.61,12,2,12,0.01
2014-5-3,63.8,52.7,39.7,43.6,39.7,34.2,96,65,35,29.86,29.61,20,4,20,0.00
2014-5-4,63.7,51.9,42.3,39.1,30.7,19.2,70,47,20,30.06,29.86,11,2,11,0.00
2014-5-5,61.7,51.8,43.9,40.2,36.1,32.0,72,56,40,30.04,29.92,20,4,20,0.00
2014-5-6,65.9,53.1,38.6,44.4,38.0,32.6,83,58,40,30.02,29.84,22,5,23,0.00
2014-5-7,59.5,52.8,47.9,51.0,45.4,36.1,90,76,58,29.86,29.74,16,5,20,0.06
2014-5-8,78.1,63.9,48.1,66.4,56.7,46.2,96,79,59,29.77,29.59,18,3,18,0.00
2014-5-9,72.3,58.4,43.3,62.3,51.0,39.1,87,76,69,29.79,29.52,21,6,21,0.00
2014-5-10,75.1,55.9,36.5,54.0,44.4,34.9,96,69,34,29.92,29.79,12,1,12,0.00
2014-5-11,76.6,62.8,46.4,65.9,56.3,43.9,94,80,57,29.87,29.79,12,2,12,0.06
2014-5-12,78.1,67.8,62.5,70.2,64.1,60.4,98,88,74,29.83,29.63,13,2,13,1.19
2014-5-13,66.2,54.4,45.4,62.8,48.8,40.7,96,82,66,30.13,29.69,16,3,16,0.04
2014-5-14,61.2,50.5,36.4,42.5,36.5,31.1,95,62,35,30.22,30.04,14,2,14,0.00
2014-5-15,57.7,49.4,42.6,40.1,34.8,29.8,78,58,40,30.05,29.96,18,3,18,0.00
2014-5-16,53.4,45.5,33.6,34.6,30.2,26.8,83,56,38,30.07,30.01,12,1,12,0.00
2014-5-17,62.4,50.4,32.5,38.7,34.4,28.3,95,58,32,30.07,30.01,11,2,11,0.00
2014-5-18,72.4,59.0,45.5,43.8,39.3,35.1,70,50,30,30.13,30.05,15,2,15,0.00
2014-5-19,62.5,55.7,48.8,52.3,47.0,40.2,89,73,61,30.12,29.83,13,2,13,0.07
2014-5-20,86.8,72.4,58.6,66.6,58.6,49.4,92,65,35,29.83,29.74,11,1,11,0.00
2014-5-21,81.2,60.0,52.4,59.6,53.9,47.1,96,82,33,29.98,29.75,8,0,15,0.00
2014-5-22,74.6,61.3,47.9,49.4,47.2,44.5,91,63,37,30.12,29.98,5,1,13,0.00
2014-5-23,75.5,61.1,42.3,49.6,46.5,40.2,95,63,35,30.19,30.12,8,1,12,0.00
2014-5-24,78.6,63.0,44.8,50.7,47.1,42.6,95,61,30,30.19,30.06,3,0,8,0.00
2014-5-25,83.0,67.5,43.3,60.2,52.5,41.4,95,63,37,30.08,29.91,5,1,10,0.00
2014-5-26,84.0,72.5,65.1,72.1,66.4,59.3,94,82,62,29.93,29.82,4,1,14,0.67
2014-5-27,82.8,73.0,64.6,70.1,67.2,62.5,96,83,63,29.87,29.79,7,1,13,0.61
2014-5-28,79.3,67.2,57.8,61.8,52.4,41.7,96,62,28,30.04,29.88,13,2,13,0.00
2014-5-29,86.4,68.7,50.7,61.8,55.5,49.0,95,67,36,30.11,30.00,8,1,13,0.00
2014-5-30,89.0,71.1,50.1,62.9,56.7,49.0,100,65,33,30.14,30.04,10,0,10,0.00
2014-5-31,89.1,73.1,52.9,64.6,57.8,50.5,96,63,36,30.11,29.92,7,1,9,0.00
2014-6-1,85.5,71.8,67.0,74.3,67.9,64.3,98,88,61,29.97,29.74,13,2,13,1.74
2014-6-2,81.3,71.7,65.6,69.4,66.1,59.0,98,83,63,29.75,29.63,11,3,11,0.42
2014-6-3,78.5,68.1,58.8,60.4,56.6,51.2,88,68,45,29.92,29.72,10,2,10,0.00
2014-6-4,75.8,66.9,59.5,63.0,59.9,56.2,93,79,58,29.88,29.75,10,0,10,0.00
2014-6-5,80.7,67.4,53.2,63.0,55.4,50.6,97,69,40,29.94,29.84,7,1,7,0.01
2014-6-6,82.3,71.5,60.2,63.5,58.3,51.6,88,64,46,29.93,29.85,7,1,7,0.00
2014-6-7,80.8,66.5,57.0,67.4,60.7,55.3,96,83,53,29.92,29.81,12,1,12,0.06
2014-6-8,78.3,66.1,54.9,57.2,52.0,45.9,92,64,36,30.02,29.91,14,2,14,0.00
2014-6-9,80.0,65.1,48.9,59.5,51.7,44.0,96,66,33,30.01,29.89,10,1,10,0.00
2014-6-10,73.8,66.4,58.1,58.7,55.2,49.8,82,68,53,29.92,29.80,11,2,11,0.00
2014-6-11,81.6,69.3,59.4,62.6,56.6,52.6,86,66,45,29.80,29.68,10,2,10,0.00
2014-6-12,74.5,64.4,54.8,63.6,54.2,46.8,97,72,48,29.86,29.65,14,2,14,0.00
2014-6-13,75.5,60.8,48.2,51.2,44.6,39.6,83,58,33,29.98,29.85,15,2,15,0.00
2014-6-14,78.8,66.6,50.0,55.7,50.9,47.2,93,61,35,30.01,29.75,10,1,12,0.00
2014-6-15,82.8,72.0,62.5,68.0,57.8,48.2,82,61,49,29.84,29.60,8,2,13,0.00
2014-6-16,86.0,72.1,54.1,68.8,60.7,52.2,96,70,44,29.95,29.69,18,1,18,1.99
2014-6-17,87.5,74.0,63.7,70.6,66.6,62.7,98,80,53,29.83,29.61,11,0,11,0.24
2014-6-18,82.0,71.6,64.0,70.9,66.7,62.5,98,85,63,29.95,29.72,19,2,19,2.10
2014-6-19,76.2,69.4,64.1,69.0,65.9,62.9,98,89,75,30.05,29.91,16,2,16,0.50
2014-6-20,86.8,74.1,66.8,72.4,67.7,63.6,98,82,49,29.93,29.84,7,0,7,0.01
2014-6-21,82.0,73.5,65.2,72.5,68.4,63.7,96,85,64,29.88,29.78,5,0,6,0.03
2014-6-22,85.8,70.6,60.2,70.6,66.0,58.8,98,87,57,29.87,29.76,11,0,11,0.43
2014-6-23,84.4,74.0,65.8,71.6,67.6,65.0,98,82,59,29.80,29.73,7,0,7,0.00
2014-6-24,86.3,74.8,63.5,68.3,65.0,61.7,97,74,47,29.85,29.77,9,1,9,0.00
2014-6-25,80.7,70.9,65.4,70.2,65.3,62.2,97,83,67,29.98,29.85,14,1,14,0.32
2014-6-26,82.9,71.3,61.6,68.1,64.1,59.6,96,79,58,30.03,29.89,10,1,10,0.00
2014-6-27,87.0,76.9,66.5,73.1,68.4,61.0,88,75,60,29.93,29.79,11,1,11,0.00
2014-6-28,86.0,77.4,69.1,75.8,71.0,66.9,93,81,68,29.88,29.73,13,1,13,0.32
2014-6-29,83.1,73.3,65.7,72.3,67.9,64.5,97,84,60,29.82,29.70,13,2,13,0.95
2014-6-30,83.4,70.2,65.0,75.6,67.7,63.0,98,92,77,29.74,29.49,8,2,10,0.46
2014-7-1,78.4,68.2,61.5,67.8,62.9,57.6,95,84,65,29.70,29.53,11,3,11,0.04
2014-7-2,66.6,61.0,54.9,58.7,56.1,52.8,97,84,70,30.00,29.70,11,1,11,0.04
2014-7-3,77.3,63.3,47.0,57.8,52.1,45.7,97,71,37,30.16,30.00,9,0,9,0.01
2014-7-4,81.8,67.3,51.5,60.0,54.3,46.7,97,68,32,30.27,30.16,8,0,8,0.00
2014-7-5,77.3,67.0,56.8,65.3,60.1,54.3,93,79,63,30.17,29.94,12,2,12,0.00
2014-7-6,79.8,72.3,65.5,75.6,68.9,61.7,94,89,82,29.94,29.59,11,1,11,0.00
2014-7-7,85.3,73.7,62.4,69.2,65.3,60.3,96,77,50,29.70,29.54,10,1,10,0.48
2014-7-8,79.0,69.8,60.2,65.2,61.6,56.6,97,77,51,29.79,29.53,12,2,12,0.01
2014-7-9,76.8,65.8,54.9,59.5,54.9,48.3,97,71,43,30.01,29.79,13,1,13,0.00
2014-7-10,80.8,67.6,50.9,67.2,59.5,49.2,97,77,58,30.11,30.01,8,1,8,0.00
2014-7-11,76.3,69.6,62.2,65.4,62.5,59.6,93,79,65,30.11,29.99,8,1,8,0.02
2014-7-12,77.8,71.7,64.0,72.9,67.9,62.5,96,88,79,30.01,29.81,8,0,8,0.35
2014-7-13,80.7,69.4,58.4,69.9,62.1,54.8,98,80,53,29.87,29.82,11,1,11,0.01
2014-7-14,74.2,62.2,51.6,60.4,53.4,48.4,97,75,48,29.86,29.78,13,1,13,0.00
2014-7-15,69.3,59.8,52.8,57.0,53.5,50.0,93,80,60,29.96,29.85,15,2,15,0.02
2014-7-16,75.3,60.4,46.3,56.7,50.6,44.7,97,74,41,30.02,29.96,8,0,8,0.00
2014-7-17,77.3,62.6,45.2,60.3,52.1,44.1,97,72,40,30.08,30.01,5,0,5,0.00
2014-7-18,80.3,67.0,52.1,63.7,58.1,49.8,96,75,52,30.10,29.99,8,1,8,0.00
2014-7-19,79.8,69.1,56.8,65.1,61.2,55.2,97,77,56,30.02,29.92,8,1,8,0.00
2014-7-20,82.4,71.2,58.8,69.1,63.8,57.4,96,79,60,29.96,29.88,7,1,7,0.00
2014-7-21,88.1,76.3,65.9,73.0,68.1,63.2,91,77,58,29.97,29.89,6,1,8,0.00
2014-7-22,93.0,80.3,71.9,80.8,71.8,61.9,85,76,60,30.00,29.80,11,2,11,0.00
2014-7-23,81.8,70.7,57.3,62.3,59.6,54.8,95,70,47,30.15,30.00,9,1,9,0.00
2014-7-24,80.2,67.9,55.4,62.3,57.8,53.1,95,72,47,30.15,29.92,6,0,6,0.00
2014-7-25,72.5,66.0,59.8,65.2,61.0,57.0,93,84,76,29.98,29.80,7,1,7,0.00
2014-7-26,81.0,72.4,64.8,74.3,68.0,62.6,94,86,73,29.83,29.71,6,1,6,0.00
2014-7-27,77.0,70.1,62.4,69.2,63.7,55.6,96,81,59,29.97,29.68,17,1,17,0.12
2014-7-28,74.8,64.4,53.6,58.4,54.5,50.9,91,72,48,30.10,29.97,10,1,10,0.00
2014-7-29,80.6,64.5,51.7,62.6,57.0,49.8,96,79,49,30.03,29.95,13,1,13,0.06
2014-7-30,81.9,66.5,53.0,62.5,57.3,51.6,97,76,40,30.03,29.96,7,0,7,0.04
2014-7-31,85.7,70.0,56.0,66.3,61.3,54.6,97,77,47,29.97,29.93,7,0,9,0.03
2014-8-1,87.0,69.0,54.2,66.9,59.5,52.8,97,75,47,30.06,29.96,18,1,18,0.01
2014-8-2,89.0,71.0,53.7,70.3,61.6,51.7,96,75,45,30.12,30.02,5,0,5,0.00
2014-8-3,89.0,73.3,57.2,70.4,64.3,55.5,97,76,46,30.08,29.98,6,0,6,0.00
2014-8-4,83.9,67.5,61.1,71.8,64.6,59.5,97,91,65,30.03,29.97,14,0,14,0.52
2014-8-5,82.0,69.5,62.0,68.2,64.5,59.3,98,85,60,30.05,29.99,8,0,8,0.00
2014-8-6,84.1,70.2,58.3,69.8,62.1,57.2,98,78,45,30.05,29.98,5,0,5,0.00
2014-8-7,86.2,70.2,55.2,63.3,58.9,54.1,98,71,41,30.07,29.98,11,1,11,0.01
2014-8-8,87.5,70.2,55.0,63.5,58.6,53.3,96,71,40,30.07,30.00,13,1,13,0.00
2014-8-9,85.1,69.5,55.5,64.6,58.5,53.8,97,72,42,30.09,30.01,9,1,11,0.00
2014-8-10,86.3,68.0,51.4,68.5,60.3,49.7,97,79,51,30.07,29.93,6,0,6,0.00
2014-8-11,82.2,67.7,58.1,69.6,62.3,56.7,97,84,59,29.94,29.76,14,2,14,0.00
2014-8-12,78.6,65.5,54.9,58.6,55.0,50.7,89,71,45,29.95,29.84,17,3,17,0.00
2014-8-13,84.3,66.8,51.8,65.8,56.9,49.6,96,73,47,30.03,29.94,9,1,9,0.00
2014-8-14,80.5,62.2,45.9,57.5,51.2,44.0,96,72,35,30.12,30.00,8,0,8,0.00
2014-8-15,82.7,65.6,46.9,67.1,57.6,45.3,97,78,50,30.03,29.87,7,1,7,0.01
2014-8-16,89.0,73.7,61.0,72.4,66.8,59.6,97,81,54,29.87,29.79,6,0,6,0.01
2014-8-17,83.6,70.9,63.5,69.9,63.2,59.3,94,78,56,29.97,29.86,15,2,15,0.00
2014-8-18,85.1,73.0,63.0,73.6,67.2,60.5,94,83,66,29.88,29.62,15,2,15,0.01
2014-8-19,84.6,71.4,62.1,69.2,65.2,61.0,98,82,56,29.72,29.58,14,1,15,0.37
2014-8-20,90.3,73.2,58.3,72.9,65.4,57.2,98,79,49,29.87,29.72,7,0,7,0.00
2014-8-21,78.6,71.8,66.9,74.0,69.2,64.8,98,92,84,29.90,29.78,8,0,8,0.39
2014-8-22,96.9,79.3,66.2,78.4,72.7,65.1,98,83,51,29.89,29.80,5,0,5,0.01
2014-8-23,80.1,75.9,71.7,77.5,73.8,70.2,98,93,87,29.92,29.83,12,1,12,0.00
2014-8-24,90.5,78.8,70.2,78.5,73.4,68.7,96,84,65,29.92,29.83,8,1,9,0.02
2014-8-25,85.5,76.5,66.7,76.5,72.8,65.4,98,89,72,30.01,29.84,18,1,18,0.92
2014-8-26,78.3,69.9,64.2,70.4,62.3,56.8,96,78,52,30.11,29.93,9,0,9,0.04
2014-8-27,80.1,68.2,58.8,64.8,60.2,56.5,92,77,52,30.15,30.04,4,0,5,0.00
2014-8-28,79.1,65.9,54.9,65.1,59.9,53.7,99,82,59,30.10,29.93,9,1,9,0.02
2014-8-29,89.3,74.7,62.7,75.7,68.9,58.5,97,83,63,29.93,29.70,8,1,8,0.37
2014-8-30,82.4,72.5,65.7,71.8,68.3,63.4,97,88,64,29.83,29.67,10,1,10,0.85
2014-8-31,87.8,74.1,63.5,72.9,67.8,62.0,98,82,59,29.86,29.68,6,1,8,0.01
2014-9-1,80.3,70.3,61.6,70.6,64.6,59.8,94,83,60,29.78,29.55,12,2,12,0.07
2014-9-2,83.5,69.1,53.9,63.5,59.4,52.8,98,75,44,29.89,29.78,9,0,9,0.01
2014-9-3,87.4,70.8,53.4,68.6,62.2,52.3,98,77,50,29.94,29.74,10,1,10,0.01
2014-9-4,84.2,76.6,68.3,75.9,71.3,66.7,96,84,72,29.81,29.71,11,2,14,0.57
2014-9-5,78.7,68.9,56.3,75.5,62.1,53.4,93,80,60,30.09,29.73,11,2,11,0.01
2014-9-6,79.6,62.5,48.4,58.5,53.0,47.0,97,75,40,30.16,30.08,8,0,9,0.01
2014-9-7,83.5,64.0,47.6,60.9,53.9,46.0,98,74,38,30.17,30.05,7,0,7,0.00
2014-9-8,76.2,62.8,49.6,59.8,55.4,48.2,97,79,53,30.07,29.87,7,1,11,0.07
2014-9-9,85.7,69.4,56.7,68.0,62.1,55.1,98,80,49,29.91,29.70,8,0,8,0.05
2014-9-10,74.0,62.0,47.5,70.2,59.1,42.6,98,90,81,29.94,29.41,17,2,17,0.25
2014-9-11,57.6,49.5,42.2,46.4,42.8,39.5,90,78,65,30.32,29.94,13,2,16,0.00
2014-9-12,46.5,43.7,40.0,44.1,41.8,38.4,96,93,88,30.42,30.31,4,0,5,0.22
2014-9-13,60.4,46.3,33.7,46.8,38.8,32.4,98,78,42,30.39,30.26,9,0,9,0.00
2014-9-14,67.9,53.7,39.2,52.1,46.1,37.7,100,77,55,30.28,30.08,11,2,11,0.00
2014-9-15,59.5,52.5,43.3,52.4,49.2,41.4,96,89,64,30.19,30.10,8,0,8,0.25
2014-9-16,66.5,49.6,34.0,49.8,42.5,32.5,97,79,46,30.21,30.05,6,0,6,0.01
2014-9-17,71.0,53.4,37.3,57.3,47.1,36.5,98,81,52,30.05,29.94,7,0,7,0.00
2014-9-18,66.2,53.9,45.8,56.5,50.3,43.9,97,88,69,30.16,30.01,11,1,11,0.00
2014-9-19,74.3,60.9,45.0,59.1,53.2,43.0,100,78,56,30.11,29.76,15,3,16,0.01
2014-9-20,77.3,67.7,59.7,68.5,62.9,57.4,97,85,66,29.81,29.65,14,1,14,0.37
2014-9-21,66.7,57.0,43.2,57.3,49.9,41.2,93,78,52,30.17,29.69,16,2,16,0.01
2014-9-22,71.0,52.9,36.5,55.2,46.6,35.5,98,81,54,30.27,30.16,8,0,8,0.01
2014-9-23,74.8,56.5,40.7,57.8,49.4,39.1,97,80,51,30.29,30.20,6,0,6,0.00
2014-9-24,69.0,58.3,47.4,59.0,52.9,45.5,98,83,61,30.29,30.19,6,0,6,0.01
2014-9-25,80.0,64.1,51.2,61.3,55.2,48.4,97,77,35,30.24,30.15,7,0,7,0.06
2014-9-26,80.3,61.5,45.8,60.8,53.3,44.2,97,78,43,30.24,30.14,7,0,7,0.00
2014-9-27,82.8,64.5,50.5,62.7,56.4,48.8,97,78,44,30.22,30.09,7,0,7,0.00
2014-9-28,84.1,64.5,49.5,63.0,56.3,47.8,97,78,45,30.15,30.00,5,0,5,0.01
2014-9-29,77.0,58.1,50.1,64.0,53.9,46.2,97,87,63,30.03,29.95,12,1,12,0.10
2014-9-30,50.7,46.7,43.0,46.9,42.9,40.4,94,87,79,30.08,30.00,13,2,13,0.00
2014-10-1,69.7,58.2,42.0,58.8,52.3,40.0,96,81,65,30.01,29.81,9,0,9,0.00
2014-10-2,71.5,63.5,57.7,64.8,60.4,55.2,97,90,78,29.82,29.54,14,1,14,0.32
2014-10-3,57.8,49.4,41.0,55.8,44.1,31.7,94,82,65,29.75,29.54,15,2,15,0.08
2014-10-4,49.4,41.1,35.2,41.7,36.1,31.5,95,83,66,29.71,29.61,12,2,12,0.09
2014-10-5,52.8,42.7,31.6,39.8,34.2,29.0,93,74,52,29.68,29.56,9,1,9,0.00
2014-10-6,57.2,47.6,35.3,43.6,37.4,30.4,95,70,38,29.57,29.50,11,2,11,0.00
2014-10-7,64.8,52.5,44.5,46.9,42.4,38.8,92,70,47,29.81,29.50,7,1,11,0.00
2014-10-8,64.3,49.0,36.4,42.6,38.1,34.8,100,70,38,30.03,29.81,17,1,17,0.00
2014-10-9,58.5,43.5,30.9,38.3,33.8,29.5,95,72,38,30.18,30.02,8,1,8,0.00
2014-10-10,59.1,42.8,28.5,40.8,33.4,27.0,97,74,38,30.25,30.16,7,0,7,0.00
2014-10-11,59.1,41.2,27.5,40.3,33.7,26.3,96,78,45,30.28,30.11,7,0,7,0.01
2014-10-12,61.6,47.7,31.7,48.3,39.1,30.2,95,75,46,30.11,29.83,7,1,9,0.01
2014-10-13,58.1,53.9,50.3,54.9,52.2,48.0,97,94,85,29.83,29.49,11,1,11,1.08
2014-10-14,54.3,51.4,50.0,53.5,50.2,47.2,97,96,88,29.75,29.46,11,2,11,1.23
2014-10-15,56.6,51.5,47.0,51.0,47.2,43.0,92,85,80,29.87,29.74,10,2,13,0.00
2014-10-16,65.5,53.2,44.3,53.3,48.4,42.4,97,85,63,29.85,29.53,9,1,9,0.00
2014-10-17,55.0,51.1,44.2,49.5,46.4,39.9,90,84,75,29.92,29.51,13,2,13,0.00
2014-10-18,53.7,44.8,31.8,43.5,37.9,30.3,95,78,50,30.18,29.92,13,2,13,0.03
2014-10-19,59.4,44.5,28.1,48.0,39.2,27.0,97,83,65,30.17,29.77,10,2,13,0.00
2014-10-20,62.7,52.7,43.6,47.5,44.0,40.9,93,73,52,30.03,29.76,17,2,17,0.00
2014-10-21,51.9,43.5,31.3,41.6,37.6,29.7,95,80,62,30.28,30.02,11,1,11,0.00
2014-10-22,59.5,40.5,26.1,43.4,34.4,25.1,98,81,48,30.36,30.18,9,1,9,0.00
2014-10-23,48.1,46.4,43.8,47.0,42.7,37.1,96,87,74,30.19,30.02,7,1,7,0.43
2014-10-24,63.2,53.6,47.0,56.3,50.9,46.2,98,91,72,30.04,29.85,10,1,10,0.00
2014-10-25,67.0,57.0,40.2,56.6,42.0,30.9,95,62,30,29.97,29.85,14,2,14,0.00
2014-10-26,65.3,47.5,29.7,45.7,34.3,27.9,95,65,28,30.03,29.74,8,0,8,0.02
2014-10-27,73.0,62.6,51.4,61.9,51.6,33.3,89,68,40,29.74,29.45,10,1,10,0.04
2014-10-28,60.7,48.5,41.5,55.8,40.8,36.2,89,75,65,29.91,29.54,17,4,17,0.00
2014-10-29,49.6,41.2,30.8,36.6,33.8,28.8,94,75,60,30.13,29.91,12,2,13,0.00
2014-10-30,48.7,39.6,29.7,41.3,34.7,28.2,97,84,68,30.12,30.06,16,1,16,0.00
2014-10-31,41.9,34.8,28.7,32.8,23.8,20.2,92,64,49,30.49,30.10,18,5,23,0.00
2014-11-1,44.0,30.0,17.9,26.5,22.4,15.7,93,75,48,30.53,30.36,7,1,7,0.00
2014-11-2,54.1,41.6,27.2,30.8,26.4,22.9,92,58,32,30.36,30.05,13,3,13,0.00
2014-11-3,57.8,49.8,39.1,54.8,37.9,26.3,94,64,52,30.05,29.75,12,3,12,0.06
2014-11-4,58.2,49.1,38.3,56.5,40.5,30.8,95,73,52,30.00,29.71,23,5,23,0.04
2014-11-5,50.7,42.5,30.7,41.8,36.3,27.6,94,79,58,30.08,29.81,7,1,9,0.03
2014-11-6,42.2,37.8,34.4,40.5,32.6,27.4,94,82,69,30.26,29.81,18,4,18,0.02
2014-11-7,42.2,37.4,30.5,35.2,29.8,26.4,87,75,60,30.23,29.69,11,2,11,0.01
2014-11-8,43.7,39.8,34.7,38.8,29.7,24.4,88,68,52,29.93,29.68,18,4,18,0.00
2014-11-9,47.1,40.6,34.6,34.6,32.2,28.1,92,72,58,29.88,29.71,15,2,15,0.03
2014-11-10,49.9,39.1,33.2,44.3,36.4,30.6,95,90,78,29.83,29.47,15,4,15,0.02
2014-11-11,36.1,31.0,22.0,34.4,27.4,16.5,95,86,75,30.19,29.64,20,4,20,0.06
2014-11-12,26.5,22.7,18.5,19.5,16.9,14.1,92,78,71,30.33,30.19,8,3,11,0.00
2014-11-13,27.4,23.8,19.8,20.4,18.2,15.6,92,79,67,30.34,30.30,11,2,12,0.00
2014-11-14,23.7,20.1,10.9,18.1,13.8,8.0,92,77,63,30.40,30.33,8,1,8,0.00
2014-11-15,25.5,17.9,8.3,19.3,13.8,5.5,91,84,63,30.40,30.20,6,1,6,0.00
2014-11-16,26.4,19.9,9.5,22.1,15.6,4.9,92,84,67,30.20,29.89,13,3,13,0.00
2014-11-17,15.9,11.7,8.4,8.8,6.0,4.1,88,78,65,29.97,29.85,16,4,16,0.00
2014-11-18,18.0,13.4,9.0,10.0,6.7,3.8,82,74,64,30.08,29.95,15,4,15,0.00
2014-11-19,26.1,20.5,16.5,18.8,14.5,9.9,87,77,67,29.96,29.77,17,4,17,0.00
2014-11-20,21.9,15.6,3.4,14.0,6.5,-0.4,85,68,46,30.36,29.95,14,3,14,0.00
2014-11-21,33.2,18.0,0.1,22.4,7.6,-3.4,87,66,43,30.44,30.08,13,2,13,0.00
2014-11-22,51.1,38.2,31.4,50.3,36.4,22.3,98,93,64,30.08,29.68,12,2,12,0.01
2014-11-23,51.8,48.8,44.2,50.5,47.7,43.4,97,96,92,29.68,29.10,13,2,13,0.57
2014-11-24,44.6,31.7,22.1,43.8,30.3,19.6,97,94,89,29.80,29.06,12,3,12,0.09
2014-11-25,23.7,17.8,5.5,19.6,14.2,2.7,91,86,80,30.18,29.80,9,1,9,0.00
2014-11-26,25.0,14.2,4.0,20.9,11.5,1.2,93,89,83,30.30,30.15,7,0,7,0.00
2014-11-27,23.3,14.0,-0.3,21.6,9.8,-4.2,94,83,70,30.46,30.30,13,1,13,0.01
2014-11-28,27.1,20.5,9.2,25.0,16.3,6.6,93,84,73,30.40,29.80,10,1,10,0.00
2014-11-29,43.9,33.1,17.8,40.5,30.4,15.6,96,90,80,29.80,29.48,12,1,12,0.09
2014-11-30,39.1,25.7,12.9,38.1,19.1,4.3,96,76,56,30.44,29.55,15,3,15,0.00
2014-12-1,13.0,7.6,0.1,4.6,-1.2,-4.9,87,68,53,30.76,30.44,15,2,15,0.00
2014-12-2,27.9,20.5,0.3,21.7,15.4,-2.9,90,80,68,30.62,30.02,12,3,12,0.00
2014-12-3,29.6,23.2,14.1,20.6,14.4,8.9,85,70,48,30.39,30.01,12,2,12,0.00
2014-12-4,29.0,21.1,14.1,21.7,13.2,9.3,92,72,45,30.45,30.25,8,1,8,0.00
2014-12-5,35.8,32.5,25.3,32.6,29.4,21.8,95,88,81,30.34,30.18,8,1,8,0.00
2014-12-6,35.2,26.3,13.8,28.7,21.0,11.2,92,81,55,30.70,30.34,14,1,14,0.00
2014-12-7,34.6,25.7,13.4,28.4,19.7,11.0,100,79,56,30.68,30.20,13,2,13,0.00
2014-12-8,34.2,32.7,30.5,33.4,31.3,27.6,97,95,87,30.21,29.95,13,2,13,0.21
2014-12-9,34.8,28.8,18.2,29.0,25.3,16.0,93,87,78,30.44,30.19,14,2,14,0.00
2014-12-10,25.8,23.5,17.5,23.2,21.3,15.4,94,91,87,30.47,30.32,8,0,8,0.00
2014-12-11,28.7,24.8,21.7,25.4,22.3,19.7,93,90,86,30.32,30.25,10,2,10,0.00
2014-12-12,35.2,31.8,25.9,34.1,30.5,24.2,96,95,93,30.32,30.21,7,2,10,0.00
2014-12-13,42.9,38.7,33.7,42.1,38.0,32.7,98,97,96,30.21,30.02,6,1,12,0.00
2014-12-14,46.5,44.4,41.3,46.2,44.0,40.8,99,98,98,30.04,29.91,6,1,6,0.01
2014-12-15,46.7,44.8,43.3,46.3,44.5,42.8,99,99,98,29.91,29.63,8,1,8,0.41
2014-12-16,43.3,33.6,24.1,42.8,31.1,19.1,99,91,81,30.18,29.62,16,3,18,0.27
2014-12-17,24.2,21.8,17.0,19.5,17.0,13.4,89,81,75,30.35,30.18,13,2,13,0.00
2014-12-18,26.4,23.8,18.8,22.5,20.3,15.6,98,86,83,30.35,30.27,4,0,5,0.00
2014-12-19,25.6,25.4,25.4,22.1,22.0,21.8,87,87,86,30.32,30.31,4,1,4,0.00
2014-12-29,20.6,15.8,5.9,15.7,9.1,0.3,85,75,62,30.65,30.33,3,2,12,0.00
2014-12-30,12.3,5.7,1.3,-0.6,-4.3,-6.7,77,63,45,30.78,30.66,3,2,11,0.00
2014-12-31,19.0,8.7,-2.3,8.3,0.6,-6.7,82,70,52,30.67,30.10,10,6,24,0.00
2015-1-1,29.8,20.7,12.5,21.6,14.2,6.5,84,76,65,30.14,29.92,7,4,17,0.00
2015-1-2,29.2,22.4,11.1,21.5,15.3,6.8,90,74,55,30.33,30.15,3,1,8,0.00